星链-35042 (STARLINK-35042)

导读

STARLINK-35042是美国SpaceX公司星链(Starlink)互联网卫星星座的一员,于2025年9月3日发射入轨。星链星座旨在打造全球覆盖的低轨宽带网络,为偏远地区提供高速互联网接入。该卫星采用平板设计,搭载氪工质霍尔推进器,具备自主避撞能力,寿命末期可主动离轨并在大气层烧毁,减少空间碎片影响,服务全球互联互通。

基本信息
目录编号:
65481
目录名称:
STARLINK-35042
国际标识:
2025-195Z
轨道中心:
EARTH
卫星名称:
星链-35042
卫星全名:
星链-35042 (STARLINK-35042)
卫星状态:
在轨 (已飞行283 天)
发射日期:
2025-09-03 UTC
国别 :
美国 (US)
星等 :
--
轨道信息
数据来源 国际轨道数据
星历时间: 2026-06-13T15:23:00+0800
8小时前
查看轨道信息
半长轴: 6840.827km
偏心率: 0.0001233
轨道倾角: 53.157°
近地点辐角 88.306°
升交点赤经 173.304°
平近点角 271.808°
近地点: 461.846km
远地点: 463.534km
周期: 93.847分钟
每日圈数: 15.344046
详细信息
固有亮度:
5
最大亮度:
2.5
卫星平台:
Starlink V1.0
覆盖范围:
全球
运营商:
太空探索技术公司
运营商所在国:
美国
制造商(研发单位):
太空探索技术公司
制造商所在国:
美国
使用方式:
暂无
卫星简介
Starlink 计划是 SpaceX 推出的全球卫星互联网项目,通过发射低轨道卫星,为全球尤其是偏远地区提供高速、低延迟的互联网服务。自 2019 年起,Starlink 已部署数千颗卫星,旨在缩小全球数字鸿沟,推动互联网普及。该项目还为军事、航空等行业提供通信支持,带来广泛经济效益。
2D轨道图
3D轨道图
轨道高度分析图
轨道倾角分析图
轨道综合分析图
查看轨道综合分析图